Zurück zum Katalog

STARLINK-4150

AktivKommunikationVLEO
NORAD 53134·PAYLOAD·🇺🇸 United States

Gestartet Jul 17, 2022 von Cape Canaveral Space Force Station

Loading…

Nächste Überflüge (nächste 24 Stunden)

TLE

AktuellSource: CelesTrak SupGP

Epoche: Sep 15, 2026, 01:29 UTC

1 53134C 22083C   26258.06229167 -.00032011  00000+0 -94599-3 0  2582
2 53134  53.1593  31.0319 0001161  80.7818 170.1693 15.34399417    16

Verfolge STARLINK-4150 in Echtzeit mit AllMySat

Download on the App Store